Location: Ferchesar
(52.6477°N, 12.4298°E)
Time: 09:02:42
(UTC+01:00)

Tiros 1 despin weight - Pass Details

Date: 13 December 2021
Orbit: 592 x 641 km, 48.2° (Epoch: 19 January)

Event Time Altitude Azimuth Distance (km) Brightness Sun altitude
Rises 15:25:26 0° 274° (W) 2,836 ? 2.5°
Reaches altitude 10° 15:28:24 10° 254° (WSW) 1,926 ? 2.2°
Maximum altitude 15:31:11 17° 215° (SW) 1,539 ? 1.9°
Drops below altitude 10° 15:33:57 10° 175° (S) 1,916 ? 1.6°
Sets 15:36:54 0° 155° (SSE) 2,814 ? 1.3°
